Voltar ao catálogo

STARLINK-36494

AtivoComunicaçõesVLEO
NORAD 67331·PAYLOAD·🇺🇸 United States

Lançado Jan 4, 2026 de Cape Canaveral Space Force Station

Loading…

Próximas Passagens (próximas 24 horas)

TLE

AtualizadoSource: CelesTrak SupGP

Época: Sep 14, 2026, 22:37 UTC

1 67331C 26002AC  26257.94284722 -.00021407  00000+0 -77526-3 0  2572
2 67331  43.0037 336.4942 0001793 272.8173  40.9048 15.27592937    16

Acompanhe STARLINK-36494 em tempo real com AllMySat

Download on the App Store